Regional Weather Roundup
Issued by NWS Little Rock, AR

Home | Current Version | Previous Version | Graphics & Text | Print | Product List | Glossary On
Versions: 1 2 3 4 5 6 7 8 9 10 11 12 13 14 15 16 17 18 19 20 21 22 23 24 25 26 27 28 29 30 31 32 33 34 35 36 37 38 39 40 41 42 43 44 45 46 47 48 49 50
000
ASUS44 KLZK 052105
RWRLZK

WEATHER ROUNDUP FOR ARKANSAS
NATIONAL WEATHER SERVICE LITTLE ROCK AR
400 PM CDT TUE MAY 05 2015

NOTE: "FAIR" INDICATES FEW OR NO CLOUDS BELOW 12,000 FEET WITH NO
SIGNIFICANT WEATHER AND/OR OBSTRUCTIONS TO VISIBILITY.

ARZ001-003-010-029-052200-
NORTHWEST ARKANSAS

CITY           SKY/WX    TMP DP  RH WIND       PRES   REMARKS
FAYETTEVILLE   PTSUNNY   75  65  70 S9        30.06F
FORT SMITH     MOSUNNY   84  55  36 SE16G23   30.01F
HARRISON       PTSUNNY   79  55  43 S13       30.10F
BENTONVILLE    PTSUNNY   81  59  47 S13G21    30.07F
ROGERS         PTSUNNY   78  57  48 S13       30.07F
SILOAM SPGS    MOSUNNY   77  59  53 S18G29    30.06F
HIGHFILL       PTSUNNY   81  59  47 S17G31    30.05F
SPRINGDALE     PTSUNNY   77  55  47 SE13G23   30.09F
$$

ARZ004-005-016-052200-
NORTH CENTRAL ARKANSAS

CITY           SKY/WX    TMP DP  RH WIND       PRES   REMARKS
BATESVILLE     MOSUNNY   84  54  34 S8        30.12F
FLIPPIN        MOSUNNY   81  57  44 SE12      30.09F
MTN HOME       MOSUNNY   81  56  42 SE12G22   30.10F
$$

ARZ040-041-052200-
WEST CENTRAL ARKANSAS

CITY           SKY/WX    TMP DP  RH WIND       PRES   REMARKS
MENA           PTSUNNY   82  59  44 E12G21    30.06F
MOUNT IDA      SUNNY     81  56  42 SE10G20   30.05F
$$

ARZ009-017-025-026-028-052200-
NORTHEAST ARKANSAS

CITY           SKY/WX    TMP DP  RH WIND       PRES   REMARKS
CORNING        LGT RAIN  86  55  35 S17G24    30.12F
JONESBORO      PTSUNNY   82  52  35 S12       30.12F
NEWPORT        PTSUNNY   86  53  32 S17       30.12F
WALNUT RIDGE   SUNNY     82  52  34 S10G16    30.11F
BLYTHEVILLE    MOSUNNY   84  54  35 S9        30.14F
NW BLYTHEVILLE PTSUNNY   86  59  39 SE8       30.13F HX  85
$$

ARZ022-023-033-042-044-052200-
CENTRAL ARKANSAS

CITY           SKY/WX    TMP DP  RH WIND       PRES   REMARKS
LITTLE ROCK    MOSUNNY   86  50  28 S14       30.08F
N LITTLE ROCK  MOSUNNY   84  55  36 S14G22    30.08F
JACKSONVILLE   MOSUNNY   86  53  32 SE15      30.08F
SEARCY         MOSUNNY   86  57  37 S12       30.12F HX  85
HOT SPRINGS    MOSUNNY   83  53  35 S10       30.07F
RUSSELLVILLE   PTSUNNY   83  55  38 S8        30.07F
CLINTON        FAIR      82  57  42 SE9       30.11F
$$

ARZ036-052200-
EAST ARKANSAS

CITY           SKY/WX    TMP DP  RH WIND       PRES   REMARKS
WEST MEMPHIS   MOSUNNY   84  54  35 S13G18    30.13F
$$

ARZ050-053-066-070-073-052200-
SOUTHWEST ARKANSAS

CITY           SKY/WX    TMP DP  RH WIND       PRES   REMARKS
ARKADELPHIA    FAIR      86  58  38 SE9       30.06F HX  85
CAMDEN         SUNNY     86  50  28 NE12G21   30.06F
TEXARKANA      PTSUNNY   80  58  46 SE12G23   30.04F
EL DORADO      MOSUNNY   83  53  35 SE15G22   30.07F
DE QUEEN       PTSUNNY   80  61  52 SE10G20   30.01F
$$

ARZ056-057-069-052200-
SOUTHEAST ARKANSAS

CITY           SKY/WX    TMP DP  RH WIND       PRES   REMARKS
PINE BLUFF     MOSUNNY   85  54  34 S17G24    30.09F
STUTTGART      MOSUNNY   84  54  34 SE15G23   30.11F
MONTICELLO     MOSUNNY   85  51  31 SE13G20   30.09F

$$





USA.gov is the U.S. government's official web portal to all federal, state and local government web resources and services.